Weather History for KBCE - February, 2014

Change the Weather History Date:

Sunday, February 23, 2014

  Actual Average Record
Temperature  
Mean Temperature 35 °F -  
Max Temperature 51 °F 40 °F 53 °F (1981)
Min Temperature 19 °F 11 °F -12 °F (1960)
Degree Days  
Heating Degree Days 30    
Moisture  
Dew Point 15 °F    
Average Humidity 49    
Maximum Humidity 85    
Minimum Humidity 22    
Precipitation  
Precipitation 0.00 in - - ()
Sea Level Pressure  
Sea Level Pressure 30.01 in    
Wind  
Wind Speed 7 mph (WSW)    
Max Wind Speed 12 mph    
Max Gust Speed -    
Visibility 10 miles    
Events      
Averages and records for this station are not official NWS values.
T = Trace of Precipitation, MM = Missing Value Source: NWS Daily Summary

Daily Weather History Graph

Daily Weather History Graph

Search for Another Location

Airport or City:

Trip Planner

Search our weather history database for the weather conditions in past years. The results will help you decide how hot, cold, wet, or windy it might be!

Date:

Astronomy

Feb. 23, 2014 Rise Set
Actual Time 7:08 AM MST 6:16 PM MST
Civil Twilight 6:41 AM MST 6:42 PM MST
Nautical Twilight 6:11 AM MST 7:13 PM MST
Astronomical Twilight 5:40 AM MST 7:43 PM MST
Moon 2:06 AM MST (2/23) 12:25 PM MST (2/23)
Length of Visible Light 12h 01m
Length of Day
11h 08m
Last Quarter, 38% of the Moon is Illuminated
Feb 23
Last Quarter
Mar 1
New
Mar 8
First Quarter
Mar 16
Full
Mar 23
Last Quarter

Hourly Weather History & Observations

Time (MST) Temp. Windchill Dew Point Humidity Pressure Visibility Wind Dir Wind Speed Gust Speed Precip Events Conditions
12:53 AM 23.0 °F 14.7 °F 17.1 °F 78% 29.95 in 10.0 mi WNW 6.9 mph - N/A   Clear
1:53 AM 19.9 °F 14.9 °F 16.0 °F 85% 29.96 in 10.0 mi WSW 3.5 mph - N/A   Clear
2:53 AM 21.0 °F 9.3 °F 15.1 °F 78% 29.96 in 10.0 mi West 11.5 mph - N/A   Clear
3:53 AM 21.9 °F 11.0 °F 14.0 °F 72% 29.95 in 10.0 mi WSW 10.4 mph - N/A   Clear
4:53 AM 21.0 °F 9.3 °F 12.9 °F 71% 29.97 in 10.0 mi West 11.5 mph - N/A   Clear
5:53 AM 19.9 °F 8.6 °F 12.9 °F 74% 30.01 in 10.0 mi West 10.4 mph - N/A   Clear
6:53 AM 19.9 °F 7.9 °F 12.0 °F 71% 30.06 in 10.0 mi West 11.5 mph - N/A   Clear
7:53 AM 23.0 °F - 15.1 °F 72% 30.06 in 10.0 mi Calm Calm - N/A   Clear
8:53 AM 32.0 °F 28.7 °F 18.0 °F 56% 30.08 in 10.0 mi WSW 3.5 mph - N/A   Clear
9:53 AM 41.0 °F - 15.1 °F 35% 30.04 in 10.0 mi Calm Calm - N/A   Clear
10:53 AM 44.1 °F 40.1 °F 12.9 °F 28% 30.03 in 10.0 mi WSW 6.9 mph - N/A   Clear
11:53 AM 46.0 °F 43.1 °F 9.0 °F 22% 30.03 in 10.0 mi WNW 5.8 mph - N/A   Clear
12:53 PM 48.0 °F - 12.9 °F 24% 30.00 in 10.0 mi SSE 4.6 mph - N/A   Clear
1:53 PM 48.9 °F - 14.0 °F 25% 29.99 in 10.0 mi Variable 6.9 mph - N/A   Clear
2:53 PM 50.0 °F - 18.0 °F 28% 29.97 in 10.0 mi South 10.4 mph - N/A   Clear
3:53 PM 51.1 °F - 16.0 °F 25% 29.95 in 10.0 mi ESE 6.9 mph - N/A   Clear
4:53 PM 51.1 °F - 12.9 °F 22% 29.95 in 10.0 mi Calm Calm - N/A   Clear
5:53 PM 46.0 °F 41.9 °F 19.0 °F 34% 29.99 in 10.0 mi WSW 8.1 mph - N/A   Clear
6:53 PM 39.9 °F 33.4 °F 17.1 °F 40% 30.04 in 10.0 mi West 10.4 mph - N/A   Clear
7:53 PM 36.0 °F 29.0 °F - N/A% 30.06 in 10.0 mi West 9.2 mph - N/A   Clear
8:53 PM 28.9 °F 21.9 °F - N/A% 30.06 in 10.0 mi WSW 6.9 mph - N/A   Clear
9:53 PM 28.9 °F 21.1 °F - N/A% 30.04 in 10.0 mi West 8.1 mph - N/A   Clear
10:53 PM 28.9 °F 20.4 °F - N/A% 30.02 in 10.0 mi WNW 9.2 mph - N/A   Clear
11:53 PM 26.1 °F 21.9 °F - N/A% 30.03 in 10.0 mi West 3.5 mph - N/A   Clear